Location: Unspecified
(51.0950°N, 12.9690°E)
Time: 22:45:04
(UTC+00:00)

NOSS 2-3 (E) - Pass Details

Date: 28 October 2021
Orbit: 540 x 1670 km, 63.4° (Epoch: 28 November)

Event Time Altitude Azimuth Distance (km) Brightness Sun altitude
Rises 16:14:08 0° 204° (SSW) 2,694 7.5 -4.6°
Reaches altitude 10° 16:16:15 10° 197° (SSW) 1,837 6.5 -4.9°
Maximum altitude 16:20:06 46° 124° (SE) 822 3.9 -5.5°
Drops below altitude 10° 16:24:38 10° 52° (NE) 2,169 5.8 -6.2°
Enters shadow 16:26:07 - 48° (NE) 2,763 6.3 -6.4°
